Surface/Precipitation History
02/27/2017 09:48  to  2/28/2017 09:48
Change End Date:
Date/Time
(MST)
Sf
Temp Chem Water Layer Surface Precipitation
Sfc Pvt Sub Frz Factor Pct Dpth DpthThk IcePct Cond Salin FI Type Intens Accum Rate
02/28/2017 09:41 Ice Warning 24.4F - - 32F 95 0% - - 100% 2 mhos 0 - None None - -
02/28/2017 09:37 Ice Warning 23.5F - - 32F 95 0% - - 100% 2 mhos 0 - None None - -
02/28/2017 09:27 Ice Warning 21.2F - - 32F 95 0% - - 100% 2 mhos 0 - None None - -
02/28/2017 09:26 Ice Warning 21.2F - - 32F 95 0% - - 100% 2 mhos 0 - None None - -
02/28/2017 09:17 Ice Warning 20.1F - - 32F 95 0% - - 100% 1 mhos 0 - None None - -
02/28/2017 09:11 Ice Warning 18.7F - - 32F 95 0% - - 100% 1 mhos 0 - None None - -
02/28/2017 09:07 Ice Warning 18.3F - - 32F 95 0% - - 100% 1 mhos 0 - None None - -
02/28/2017 08:57 Ice Warning 18.3F - - 32F 95 0% - - 100% 1 mhos 0 - None None - -
02/28/2017 08:56 Ice Warning 18.3F - - 32F 95 0% - - 100% 1 mhos 0 - None None - -
02/28/2017 08:47 Ice Warning 18.5F - - 32F 90 0% - - 100% 1 mhos 0 - None None - -
02/28/2017 08:40 Ice Warning 19.0F - - 32F 80 0% - - 100% 1 mhos 0 - None None - -
02/28/2017 08:37 Ice Warning 18.9F - - 32F 85 0% - - 100% 1 mhos 0 - Yes - - -
02/28/2017 08:27 Ice Warning 18.7F - - 32F 80 0% - - 100% 1 mhos 0 - None None - -
02/28/2017 08:26 Ice Warning 18.7F - - 32F 85 0% - - 100% 1 mhos 0 - None None - -
02/28/2017 08:17 Ice Warning 18.9F - - 32F 90 0% - - 100% 1 mhos 0 - None None - -
Date/Time
(MST)
Sf
Temp Chem Water Layer Surface Precipitation
Sfc Pvt Sub Frz Factor Pct Dpth DpthThk IcePct Cond Salin FI Type Intens Accum Rate
02/28/2017 08:11 Ice Warning 18.5F - - 32F 80 0% - - 100% 1 mhos 0 - None None - -
02/28/2017 08:07 Ice Warning 18.3F - - 32F 80 0% - - 100% 1 mhos 0 - Yes - - -
02/28/2017 07:57 Ice Warning 18.3F - - 32F 90 0% - - 100% 1 mhos 0 - Yes - - -
02/28/2017 07:55 Ice Warning 18.3F - - 32F 95 0% - - 100% 1 mhos 0 - Yes - - -
02/28/2017 07:47 Ice Warning 18.0F - - 32F 90 0% - - 100% 1 mhos 0 - Yes - - -
02/28/2017 07:41 Ice Warning 18.0F - - 32F 85 0% - - 100% 1 mhos 0 - Yes - - -
02/28/2017 07:37 Ice Warning 18.1F - - 32F 90 0% - - 100% 1 mhos 0 - Yes - - -
02/28/2017 07:27 Ice Warning 18.1F - - 32F 95 0% - - 100% 1 mhos 0 - Yes - - -
02/28/2017 07:25 Ice Warning 18.1F - - 32F 95 0% - - 100% 1 mhos 0 - Yes - - -
02/28/2017 07:16 Ice Warning 18.0F - - 32F 95 0% - - 100% 1 mhos 0 - Yes - - -
02/28/2017 07:10 Ice Warning 17.6F - - 32F 80 0% - - 100% 2 mhos 0 - Yes - - -
02/28/2017 07:06 Ice Warning 17.6F - - 32F 85 0% - - 100% 2 mhos 0 - Yes - - -
02/28/2017 06:56 Ice Warning 17.4F - - 32F 80 0% - - 100% 2 mhos 0 - Yes - - -
02/28/2017 06:56 Ice Warning 17.4F - - 32F 80 0% - - 100% 2 mhos 0 - Yes - - -
02/28/2017 06:46 Ice Warning 17.2F - - 32F 80 0% - - 100% 2 mhos 0 - Yes - - -
Date/Time
(MST)
Sf
Temp Chem Water Layer Surface Precipitation
Sfc Pvt Sub Frz Factor Pct Dpth DpthThk IcePct Cond Salin FI Type Intens Accum Rate
02/28/2017 06:40 Ice Warning 17.2F - - 32F 60 0% - - 100% 2 mhos 0 - Yes - - -
02/28/2017 06:36 Ice Warning 17.1F - - 32F 90 0% - - 100% 2 mhos 0 - Yes - - -
02/28/2017 06:26 Ice Warning 16.9F - - 32F 95 0% - - 100% 2 mhos 0 - Yes - - -
02/28/2017 06:26 Ice Warning 16.9F - - 32F 95 0% - - 100% 2 mhos 0 - Yes - - -
02/28/2017 06:16 Ice Warning 16.7F - - 32F 95 0% - - 100% 2 mhos 0 - Yes - - -
02/28/2017 06:11 Ice Warning 16.7F - - 32F 85 0% - - 100% 2 mhos 0 - Yes - - -
02/28/2017 06:06 Ice Warning 16.7F - - 32F 75 0% - - 100% 2 mhos 0 - Yes - - -
02/28/2017 05:56 Ice Warning 16.2F - - 32F 40 0% - - 100% 2 mhos 0 - Yes - - -
02/28/2017 05:56 Ice Warning 16.2F - - 32F 40 0% - - 100% 2 mhos 0 - Yes - - -
02/28/2017 05:46 Ice Warning 15.8F - - 32F 30 0% - - 100% 2 mhos 0 - Yes - - -
02/28/2017 05:40 Ice Warning 15.4F - - 32F 45 0% - - 100% 2 mhos 0 - None None - -
02/28/2017 05:36 Ice Warning 15.1F - - 32F 50 0% - - 100% 2 mhos 0 - None None - -
02/28/2017 05:26 Ice Warning 14.5F - - 32F 55 0% - - 100% 2 mhos 0 - None None - -
02/28/2017 05:26 Ice Warning 14.5F - - 32F 55 0% - - 100% 2 mhos 0 - None None - -
02/28/2017 05:16 Ice Warning 14.2F - - 32F 50 0% - - 100% 2 mhos 0 - None None - -
Date/Time
(MST)
Sf
Temp Chem Water Layer Surface Precipitation
Sfc Pvt Sub Frz Factor Pct Dpth DpthThk IcePct Cond Salin FI Type Intens Accum Rate
02/28/2017 05:11 Ice Warning 14.4F - - 32F 50 0% - - 100% 2 mhos 0 - None None - -
02/28/2017 05:06 Ice Warning 14.5F - - 32F 55 0% - - 100% 2 mhos 0 - None None - -
02/28/2017 04:56 Ice Warning 14.5F - - 32F 65 0% - - 100% 2 mhos 0 - None None - -
02/28/2017 04:56 Ice Warning 14.5F - - 32F 65 0% - - 100% 2 mhos 0 - None None - -
02/28/2017 04:45 Ice Warning 14.5F - - 32F 70 0% - - 100% 2 mhos 0 - None None - -
02/28/2017 04:41 Ice Warning 14.5F - - 32F 75 0% - - 100% 1 mhos 0 - None None - -
02/28/2017 04:35 Ice Warning 14.4F - - 32F 75 0% - - 100% 1 mhos 0 - None None - -
02/28/2017 04:26 Ice Warning 14.2F - - 32F 80 0% - - 100% 1 mhos 0 - None None - -
02/28/2017 04:25 Ice Warning 14.2F - - 32F 80 0% - - 100% 1 mhos 0 - None None - -
02/28/2017 04:15 Ice Warning 14.2F - - 32F 90 0% - - 100% 1 mhos 0 - None None - -
02/28/2017 04:11 Ice Warning 14.5F - - 32F 90 0% - - 100% 1 mhos 0 - None None - -
02/28/2017 04:05 Ice Warning 14.4F - - 32F 95 0% - - 100% 1 mhos 0 - None None - -
02/28/2017 03:56 Ice Warning 14.5F - - 32F 95 0% - - 100% 1 mhos 0 - None None - -
02/28/2017 03:55 Ice Warning 14.5F - - 32F 95 0% - - 100% 1 mhos 0 - None None - -
02/28/2017 03:45 Ice Warning 14.4F - - 32F 95 0% - - 100% 1 mhos 0 - None None - -
Date/Time
(MST)
Sf
Temp Chem Water Layer Surface Precipitation
Sfc Pvt Sub Frz Factor Pct Dpth DpthThk IcePct Cond Salin FI Type Intens Accum Rate
02/28/2017 03:40 Ice Warning 14.2F - - 32F 95 0% - - 100% 1 mhos 0 - None None - -
02/28/2017 03:35 Ice Warning 14.4F - - 32F 95 0% - - 100% 1 mhos 0 - None None - -
02/28/2017 03:26 Ice Warning 14.7F - - 32F 95 0% - - 100% 1 mhos 0 - None None - -
02/28/2017 03:25 Ice Warning 14.7F - - 32F 95 0% - - 100% 1 mhos 0 - None None - -
02/28/2017 03:15 Ice Warning 14.9F - - 32F 90 0% - - 100% 1 mhos 0 - None None - -
02/28/2017 03:10 Ice Warning 14.9F - - 32F 90 0% - - 100% 1 mhos 0 - None None - -
02/28/2017 03:05 Ice Warning 14.9F - - 32F 90 0% - - 100% 1 mhos 0 - None None - -
02/28/2017 02:56 Ice Warning 15.3F - - 32F 95 0% - - 100% 1 mhos 0 - None None - -
02/28/2017 02:55 Ice Warning 15.3F - - 32F 95 0% - - 100% 1 mhos 0 - None None - -
02/28/2017 02:45 Ice Warning 15.6F - - 32F 95 0% - - 100% 1 mhos 0 - None None - -
02/28/2017 02:41 Ice Warning 15.8F - - 32F 95 0% - - 100% 1 mhos 0 - None None - -
02/28/2017 02:35 Ice Warning 16.0F - - 32F 95 0% - - 100% 1 mhos 0 - None None - -
02/28/2017 02:26 Ice Warning 16.3F - - 32F 95 0% - - 100% 1 mhos 0 - None None - -
02/28/2017 02:25 Ice Warning 16.3F - - 32F 95 0% - - 100% 1 mhos 0 - None None - -
02/28/2017 02:15 Ice Warning 17.1F - - 32F 95 0% - - 100% 1 mhos 0 - None None - -
Date/Time
(MST)
Sf
Temp Chem Water Layer Surface Precipitation
Sfc Pvt Sub Frz Factor Pct Dpth DpthThk IcePct Cond Salin FI Type Intens Accum Rate
02/28/2017 02:11 Ice Warning 17.2F - - 32F 95 0% - - 100% 1 mhos 0 - None None - -
02/28/2017 02:05 Ice Warning 17.6F - - 32F 95 0% - - 100% 1 mhos 0 - None None - -
02/28/2017 01:56 Ice Warning 18.0F - - 32F 95 0% - - 100% 1 mhos 0 - None None - -
02/28/2017 01:54 Ice Warning 17.8F - - 32F 95 0% - - 100% 1 mhos 0 - None None - -
02/28/2017 01:44 Ice Warning 17.6F - - 32F 95 0% - - 100% 1 mhos 0 - None None - -
02/28/2017 01:41 Ice Warning 17.4F - - 32F 95 0% - - 100% 1 mhos 0 - None None - -
02/28/2017 01:34 Ice Warning 17.2F - - 32F 95 0% - - 100% 1 mhos 0 - None None - -
02/28/2017 01:25 Ice Warning 17.8F - - 32F 95 0% - - 100% 1 mhos 0 - None None - -
02/28/2017 01:24 Ice Warning 17.8F - - 32F 95 0% - - 100% 1 mhos 0 - None None - -
02/28/2017 01:14 Ice Warning 18.3F - - 32F 95 0% - - 100% 1 mhos 0 - None None - -
02/28/2017 01:11 Ice Warning 18.3F - - 32F 95 0% - - 100% 1 mhos 0 - None None - -
02/28/2017 01:04 Ice Warning 18.3F - - 32F 95 0% - - 100% 1 mhos 0 - None None - -
02/28/2017 00:56 Ice Warning 18.5F - - 32F 95 0% - - 100% 1 mhos 0 - None None - -
02/28/2017 00:54 Ice Warning 18.5F - - 32F 95 0% - - 100% 1 mhos 0 - None None - -
02/28/2017 00:44 Ice Warning 19.0F - - 32F 95 0% - - 100% 1 mhos 0 - None None - -
Date/Time
(MST)
Sf
Temp Chem Water Layer Surface Precipitation
Sfc Pvt Sub Frz Factor Pct Dpth DpthThk IcePct Cond Salin FI Type Intens Accum Rate
02/28/2017 00:41 Ice Warning 19.2F - - 32F 95 0% - - 100% 1 mhos 0 - None None - -
02/28/2017 00:34 Ice Warning 19.6F - - 32F 95 0% - - 100% 1 mhos 0 - None None - -
02/28/2017 00:26 Ice Warning 20.1F - - 32F 95 0% - - 100% 1 mhos 0 - None None - -
02/28/2017 00:24 Ice Warning 20.3F - - 32F 95 0% - - 100% 1 mhos 0 - None None - -
02/28/2017 00:14 Ice Warning 20.3F - - 32F 95 0% - - 100% 1 mhos 0 - None None - -
02/28/2017 00:10 Ice Warning 20.3F - - 32F 90 0% - - 100% 1 mhos 0 - None None - -
02/28/2017 00:04 Ice Warning 20.5F - - 32F 95 0% - - 100% 1 mhos 0 - None None - -
02/27/2017 23:56 Ice Warning 20.7F - - 32F 85 0% - - 100% 1 mhos 0 - None None - -
02/27/2017 23:54 Ice Warning 20.7F - - 32F 90 0% - - 100% 1 mhos 0 - None None - -
02/27/2017 23:44 Ice Warning 20.7F - - 32F 85 0% - - 100% 1 mhos 0 - None None - -
02/27/2017 23:41 Ice Warning 20.7F - - 32F 95 0% - - 100% 1 mhos 0 - None None - -
02/27/2017 23:34 Ice Warning 21.0F - - 32F 90 0% - - 100% 1 mhos 0 - Yes - - -
02/27/2017 23:25 Ice Warning 21.0F - - 32F 95 0% - - 100% 1 mhos 0 - Yes - - -
02/27/2017 23:24 Ice Warning 21.0F - - 32F 95 0% - - 100% 1 mhos 0 - Yes - - -
02/27/2017 23:14 Ice Warning 21.4F - - 32F 95 0% - - 100% 1 mhos 0 - Yes - - -
Date/Time
(MST)
Sf
Temp Chem Water Layer Surface Precipitation
Sfc Pvt Sub Frz Factor Pct Dpth DpthThk IcePct Cond Salin FI Type Intens Accum Rate
02/27/2017 23:10 Ice Warning 21.4F - - 32F 95 0% - - 100% 1 mhos 0 - Yes - - -
02/27/2017 23:03 Ice Warning 21.9F - - 32F 95 0% - - 100% 1 mhos 0 - Yes - - -
02/27/2017 22:56 Ice Warning 21.6F - - 32F 95 0% - - 100% 1 mhos 0 - Yes - - -
02/27/2017 22:53 Ice Warning 21.4F - - 32F 95 0% - - 100% 1 mhos 0 - Yes - - -
02/27/2017 22:43 Ice Warning 20.7F - - 32F 95 0% - - 100% 0 mhos 0 - Yes - - -
02/27/2017 22:41 Ice Warning 21.4F - - 32F 50 0% - - 100% 0 mhos 0 - Yes - - -
02/27/2017 22:33 Ice Warning 20.7F - - 32F 10 0% - - 100% 0 mhos 0 - Yes - - -
02/27/2017 22:26 Ice Warning 20.3F - - 32F 5 0% - - 100% 0 mhos 0 - Yes - - -
02/27/2017 22:23 Ice Warning 20.3F - - 32F 5 0% - - 100% 0 mhos 0 - None None - -
02/27/2017 22:13 Ice Warning 20.3F - - 32F 10 0% - - 100% 0 mhos 0 - None None - -
02/27/2017 22:11 Ice Warning 20.7F - - 32F 10 0% - - 100% 0 mhos 0 - None None - -
02/27/2017 22:03 Ice Warning 21.0F - - 32F 10 0% - - 100% 0 mhos 0 - Yes - - -
02/27/2017 21:56 Ice Warning 21.7F - - 32F 15 0% - - 100% 0 mhos 0 - Yes - - -
02/27/2017 21:53 Ice Warning 21.7F - - 32F 10 0% - - 100% 0 mhos 0 - Yes - - -
02/27/2017 21:43 Ice Warning 22.1F - - 32F 5 0% - - 100% 0 mhos 0 - Yes - - -
Date/Time
(MST)
Sf
Temp Chem Water Layer Surface Precipitation
Sfc Pvt Sub Frz Factor Pct Dpth DpthThk IcePct Cond Salin FI Type Intens Accum Rate
02/27/2017 21:41 Ice Warning 22.1F - - 32F 5 0% - - 100% 0 mhos 0 - Yes - - -
02/27/2017 21:33 Ice Warning 21.7F - - 32F 5 0% - - 100% 0 mhos 0 - None None - -
02/27/2017 21:26 Ice Warning 21.9F - - 32F 5 0% - - 100% 0 mhos 0 - None None - -
02/27/2017 21:23 Ice Warning 22.3F - - 32F 5 0% - - 100% 0 mhos 0 - Yes - - -
02/27/2017 21:13 Ice Warning 21.9F - - 32F 5 0% - - 100% 0 mhos 0 - Yes - - -
02/27/2017 21:11 Ice Warning 21.7F - - 32F 5 0% - - 100% 0 mhos 0 - Yes - - -
02/27/2017 21:03 Ice Watch 21.4F - - - 25 - - - - 0 mhos 0 - None None - -
02/27/2017 20:56 Ice Watch 21.0F - - - 25 - - - - 0 mhos 0 - None None - -
02/27/2017 20:53 Ice Watch 20.8F - - - 25 - - - - 0 mhos 0 - None None - -
02/27/2017 20:43 Ice Watch 20.5F - - - 25 - - - - 0 mhos 0 - None None - -
02/27/2017 20:40 Ice Watch 20.3F - - - 25 - - - - 0 mhos 0 - None None - -
02/27/2017 20:33 Ice Watch 20.5F - - - 5 - - - - 0 mhos 0 - None None - -
02/27/2017 20:26 Ice Watch 20.5F - - - 5 - - - - 0 mhos 0 - None None - -
02/27/2017 20:23 Ice Watch 20.5F - - - 5 - - - - 0 mhos 0 - None None - -
02/27/2017 20:12 Ice Watch 20.7F - - - 25 - - - - 0 mhos 0 - None None - -
Date/Time
(MST)
Sf
Temp Chem Water Layer Surface Precipitation
Sfc Pvt Sub Frz Factor Pct Dpth DpthThk IcePct Cond Salin FI Type Intens Accum Rate
02/27/2017 20:11 Ice Watch 20.7F - - - 20 - - - - 0 mhos 0 - None None - -
02/27/2017 20:02 Ice Watch 20.8F - - - 5 - - - - 0 mhos 0 - None None - -
02/27/2017 19:56 Ice Watch 21.0F - - - 5 - - - - 0 mhos 0 - None None - -
02/27/2017 19:52 Ice Watch 21.0F - - - 5 - - - - 0 mhos 0 - None None - -
02/27/2017 19:42 Ice Watch 21.6F - - - 5 - - - - 0 mhos 0 - None None - -
02/27/2017 19:40 Ice Watch 21.6F - - - 5 - - - - 0 mhos 0 - None None - -
02/27/2017 19:32 Ice Watch 22.1F - - - 5 - - - - 0 mhos 0 - None None - -
02/27/2017 19:26 Ice Watch 22.1F - - - 5 - - - - 0 mhos 0 - None None - -
02/27/2017 19:22 Ice Watch 22.3F - - - 5 - - - - 0 mhos 0 - None None - -
02/27/2017 19:12 Ice Watch 22.5F - - - 5 - - - - 0 mhos 0 - None None - -
02/27/2017 19:11 Ice Watch 22.5F - - - 5 - - - - 0 mhos 0 - None None - -
02/27/2017 19:02 Ice Watch 22.6F - - - 5 - - - - 0 mhos 0 - None None - -
02/27/2017 18:56 Ice Watch 23.0F - - - 5 - - - - 0 mhos 0 - None None - -
02/27/2017 18:52 Ice Watch 23.4F - - - 5 - - - - 0 mhos 0 - None None - -
02/27/2017 18:42 Ice Watch 23.5F - - - 5 - - - - 0 mhos 0 - None None - -
Date/Time
(MST)
Sf
Temp Chem Water Layer Surface Precipitation
Sfc Pvt Sub Frz Factor Pct Dpth DpthThk IcePct Cond Salin FI Type Intens Accum Rate
02/27/2017 18:40 Ice Watch 23.7F - - - 5 - - - - 0 mhos 0 - None None - -
02/27/2017 18:32 Ice Watch 23.9F - - - 5 - - - - 0 mhos 0 - None None - -
02/27/2017 18:26 Ice Watch 24.4F - - - 5 - - - - 0 mhos 0 - None None - -
02/27/2017 18:22 Ice Watch 24.6F - - - 5 - - - - 0 mhos 0 - None None - -
02/27/2017 18:12 Ice Watch 25.2F - - - 5 - - - - 0 mhos 0 - None None - -
02/27/2017 18:11 Ice Watch 25.3F - - - 5 - - - - 0 mhos 0 - None None - -
02/27/2017 18:02 Ice Watch 25.7F - - - 5 - - - - 0 mhos 0 - None None - -
02/27/2017 17:55 Ice Watch 26.2F - - - 5 - - - - 0 mhos 0 - None None - -
02/27/2017 17:52 Ice Watch 26.6F - - - 5 - - - - 0 mhos 0 - None None - -
02/27/2017 17:42 Ice Watch 27.3F - - - 5 - - - - 0 mhos 0 - None None - -
02/27/2017 17:41 Ice Watch 27.5F - - - 5 - - - - 0 mhos 0 - None None - -
02/27/2017 17:32 Ice Watch 27.9F - - - 5 - - - - 0 mhos 0 - None None - -
02/27/2017 17:25 Ice Watch 27.7F - - - 5 - - - - 0 mhos 0 - None None - -
02/27/2017 17:22 Ice Watch 27.7F - - - 5 - - - - 0 mhos 0 - None None - -
02/27/2017 17:11 Ice Watch 28.0F - - - 5 - - - - 0 mhos 0 - None None - -
Date/Time
(MST)
Sf
Temp Chem Water Layer Surface Precipitation
Sfc Pvt Sub Frz Factor Pct Dpth DpthThk IcePct Cond Salin FI Type Intens Accum Rate
02/27/2017 17:10 Ice Watch 28.0F - - - 5 - - - - 0 mhos 0 - None None - -
02/27/2017 17:01 Ice Watch 28.8F - - - 5 - - - - 0 mhos 0 - None None - -
02/27/2017 16:55 Ice Watch 29.1F - - - 5 - - - - 0 mhos 0 - None None - -
02/27/2017 16:51 Ice Watch 29.1F - - - 5 - - - - 0 mhos 0 - None None - -
02/27/2017 16:41 Ice Watch 30.2F - - - 5 - - - - 0 mhos 0 - None None - -
02/27/2017 16:41 Ice Watch 30.2F - - - 5 - - - - 0 mhos 0 - None None - -
02/27/2017 16:31 Ice Watch 31.5F - - - 5 - - - - 0 mhos 0 - None None - -
02/27/2017 16:26 Ice Watch 32.0F - - - 5 - - - - 0 mhos 0 - None None - -
02/27/2017 16:21 Trace Moisture 32.7F - - - 5 - - - - 0 mhos 0 - None None - -
02/27/2017 16:11 Wet 33.3F - - 32F 5 0% 0.00 in - 0% 0 mhos 0 - None None - -
02/27/2017 16:10 Wet 33.3F - - 32F 5 0% 0.00 in - 0% 0 mhos 0 - None None - -
02/27/2017 16:01 Wet 34.3F - - 32F 5 0% 0.00 in - 0% 0 mhos 0 - None None - -
02/27/2017 15:56 Wet 34.9F - - 32F 5 0% 0.00 in - 0% 0 mhos 0 - None None - -
02/27/2017 15:51 Wet 35.6F - - 32F 5 0% 0.00 in - 0% 0 mhos 0 - None None - -
02/27/2017 15:41 Wet 36.9F - - 32F 5 0% 0.00 in - 0% 0 mhos 0 - Yes - - -
Date/Time
(MST)
Sf
Temp Chem Water Layer Surface Precipitation
Sfc Pvt Sub Frz Factor Pct Dpth DpthThk IcePct Cond Salin FI Type Intens Accum Rate
02/27/2017 15:40 Wet 36.9F - - 32F 5 0% 0.00 in - 0% 0 mhos 0 - Yes - - -
02/27/2017 15:31 Wet 37.4F - - 32F 5 0% 0.00 in - 0% 0 mhos 0 - None None - -
02/27/2017 15:25 Wet 37.4F - - 32F 5 0% 0.00 in - 0% 0 mhos 0 - None None - -
02/27/2017 15:21 Wet 36.9F - - 32F 5 0% 0.00 in - 0% 0 mhos 0 - Yes - - -
02/27/2017 15:11 Wet 37.2F - - 32F 5 0% 0.00 in - 0% 0 mhos 0 - Yes - - -
02/27/2017 15:10 Wet 37.2F - - 32F 5 0% 0.00 in - 0% 0 mhos 0 - Yes - - -
02/27/2017 15:01 Wet 38.1F - - 32F 5 0% 0.00 in - 0% 0 mhos 0 - Yes - - -
02/27/2017 14:55 Dry 39.0F - - - - - - - - 0 mhos 0 - None None - -
02/27/2017 14:51 Dry 39.2F - - - - - - - - 0 mhos 0 - None None - -
02/27/2017 14:41 Dry 39.9F - - - - - - - - 0 mhos 0 - None None - -
02/27/2017 14:40 Dry 39.9F - - - - - - - - 0 mhos 0 - None None - -
02/27/2017 14:30 Trace Moisture 39.7F - - - 5 - - - - 0 mhos 0 - None None - -
02/27/2017 14:26 Dry 40.1F - - - - - - - - 0 mhos 0 - None None - -
02/27/2017 14:20 Dry 40.5F - - - - - - - - 0 mhos 0 - None None - -
02/27/2017 14:10 Wet 41.9F - - 32F 5 0% 0.00 in - 0% 0 mhos 0 - None None - -
Date/Time
(MST)
Sf
Temp Chem Water Layer Surface Precipitation
Sfc Pvt Sub Frz Factor Pct Dpth DpthThk IcePct Cond Salin FI Type Intens Accum Rate
02/27/2017 14:00 Wet 41.9F - - 32F 5 0% 0.00 in - 0% 0 mhos 0 - None None - -
02/27/2017 13:56 Wet 42.1F - - 32F 5 0% 0.00 in - 0% 0 mhos 0 - None None - -
02/27/2017 13:50 Wet 43.3F - - 32F 5 0% 0.00 in - 0% 0 mhos 0 - None None - -
02/27/2017 13:40 Dry 43.2F - - - - - - - - 0 mhos 0 - Yes - - -
02/27/2017 13:40 Dry 43.2F - - - - - - - - 0 mhos 0 - Yes - - -
02/27/2017 13:30 Dry 48.0F - - - - - - - - 0 mhos 0 - None None - -
02/27/2017 13:26 Dry 46.6F - - - - - - - - 0 mhos 0 - Yes - - -
02/27/2017 13:20 Dry 45.5F - - - - - - - - 0 mhos 0 - None None - -
02/27/2017 13:11 Dry 50.2F - - - - - - - - 0 mhos 0 - None None - -
02/27/2017 13:10 Dry 50.2F - - - - - - - - 0 mhos 0 - None None - -
02/27/2017 13:00 Dry 44.8F - - - - - - - - 0 mhos 0 - None None - -
02/27/2017 12:55 Dry 47.7F - - - - - - - - 0 mhos 0 - None None - -
02/27/2017 12:50 Trace Moisture 44.8F - - - 5 - - - - 0 mhos 0 - None None - -
02/27/2017 12:41 Dry 49.5F - - - - - - - - 0 mhos 0 - None None - -
02/27/2017 12:40 Dry 50.2F - - - - - - - - 0 mhos 0 - None None - -
Date/Time
(MST)
Sf
Temp Chem Water Layer Surface Precipitation
Sfc Pvt Sub Frz Factor Pct Dpth DpthThk IcePct Cond Salin FI Type Intens Accum Rate
02/27/2017 12:30 Dry 54.0F - - - - - - - - 0 mhos 0 - None None - -
02/27/2017 12:26 Dry 53.8F - - - - - - - - 0 mhos 0 - None None - -
02/27/2017 12:20 Dry 53.2F - - - - - - - - 0 mhos 0 - None None - -
02/27/2017 12:10 Dry 52.9F - - - - - - - - 0 mhos 0 - None None - -
02/27/2017 12:10 Dry 53.2F - - - - - - - - 0 mhos 0 - None None - -
02/27/2017 12:00 Dry 51.6F - - - - - - - - 0 mhos 0 - None None - -
02/27/2017 11:56 Dry 51.4F - - - - - - - - 0 mhos 0 - None None - -
02/27/2017 11:49 Dry 50.4F - - - - - - - - 0 mhos 0 - None None - -
02/27/2017 11:40 Dry 49.6F - - - - - - - - 0 mhos 0 - None None - -
02/27/2017 11:39 Dry 49.1F - - - - - - - - 0 mhos 0 - None None - -
02/27/2017 11:29 Dry 46.2F - - - - - - - - 0 mhos 0 - None None - -
02/27/2017 11:25 Dry 48.2F - - - - - - - - 0 mhos 0 - None None - -
02/27/2017 11:19 Dry 46.0F - - - - - - - - 1 mhos 0 - None None - -
02/27/2017 11:11 Dry 45.1F - - - - - - - - 1 mhos 0 - None None - -
02/27/2017 11:09 Dry 45.0F - - - - - - - - 1 mhos 0 - None None - -
Date/Time
(MST)
Sf
Temp Chem Water Layer Surface Precipitation
Sfc Pvt Sub Frz Factor Pct Dpth DpthThk IcePct Cond Salin FI Type Intens Accum Rate
02/27/2017 10:59 Wet 43.2F - - 32F 5 0% 0.00 in - 0% 2 mhos 0 - None None - -
02/27/2017 10:56 Wet 42.4F - - 32F 15 0% 0.00 in - 0% 2 mhos 0 - None None - -
02/27/2017 10:49 Wet 39.9F - - 32F 95 0% 0.00 in - 0% 2 mhos 0 - None None - -
02/27/2017 10:41 Wet 37.8F - - 32F 5 0% 0.00 in - 0% 3 mhos 0 - None None - -
02/27/2017 10:39 Wet 38.3F - - 32F 5 0% 0.00 in - 0% 3 mhos 0 - None None - -
02/27/2017 10:29 Wet 39.0F - - 32F 95 0% 0.00 in - 0% 6 mhos 0 - None None - -
02/27/2017 10:26 Wet 38.7F - - 32F 95 0% 0.00 in - 0% 6 mhos 0 - None None - -
02/27/2017 10:19 Wet 35.6F - - 32F 95 0% 0.00 in - 0% 8 mhos 0 - None None - -
02/27/2017 10:11 Ice Warning 30.9F - - 32F 95 0% - - 100% 10 mhos 0 - None None - -
02/27/2017 10:09 Ice Warning 31.6F - - 32F 95 0% - - 100% 10 mhos 0 - None None - -
02/27/2017 09:59 Wet 32.5F - - 32F 95 0% 0.00 in - 0% 11 mhos 0 - None None - -
02/27/2017 09:55 Ice Warning 30.7F - - 32F 95 0% - - 100% 5 mhos 0 - None None - -
02/27/2017 09:49 Ice Warning 29.3F - - 32F 95 0% - - 100% 1 mhos 0 - None None - -
Change End Date:

Copyright © 1998-2015 Vaisala, Inc.
All Rights Reserved
Send comments about the data to:
SCAN Web ® is a registered trademark of Vaisala, Inc.
SCAN Web Version 6.0